STARLINK-5747, 55574

Orbit data source: Space-Track

STARLINK-5747, 55574 is a payload satellite owned by SpaceX/Seattle (US) in LEO that was launched on Sun, 12 Feb 2023 UTC via an FALCON 9 launch vehicle from the Air Force Eastern Test Range (AFETR). Payload-class satellites include a variety of spacecraft equipped with specific instruments for various scientific and technological missions. These include communications satellites like Starlink; space stations such as the ISS; scientific satellites like the Hubble; Earth observation satellites from companies like Planet Labs, Umbra, and HawkEye 360; GPS; miniature CubeSats for education and research; and military/defense satellites.

Loading next visibility...
Identifier
55574, 2023-020F
Orbit
LEO
Country
Flag of USUS
Related business
Manufacturer
SpaceX/Seattle
Mission
Operational spacecraft
Bus & Motor
STARLINK, Unknown motor
Mass
305 kg wet, ~290 kg dry
Launch date (UTC)
2023-02-12 (3 years ago)
Launch vehicle
FALCON 9
Launch site
Air Force Eastern Test Range (AFETR)
Object type
Payload
Rocket body
Debris
Shape & HBR
Unknown shape, 10.1 m
Radar Cross Section
Large (>1 m²)

Expand to show TLE details & history
Last TLE update: 10 hours ago

TLE from 10 hours ago
0 STARLINK-5747
1 55574U 23020F   25340.86050438  .00000867  00000-0  79224-4 0  9990
2 55574  43.0018 149.1948 0000839 266.6775  93.3971 15.02528295154954
Epoch: 2025-12-06T20:39Z
TLE epoch observation values (Epoch: 2025-12-06T20:39:07.578Z)
Latitude
-0.00004°
Longitude
123.531°
Altitude
558.916 km
Speed
7.584 km/s
True Right ascension
09h 56m 46s
True Declination
0° 00' 00"
Sunlit
Object was in daylight at epoch
Visualization orbit readout
Latitude
Unknown
Longitude
Unknown
Altitude
Unknown
Speed
Unknown
Apparent Right ascension
Unknown
Apparent Declination
Unknown
Sunlit
N/A
Visualization observer readout
Local Sidereal Time
04:17:53
Azimuth
Unknown
Elevation
Unknown
Doppler factor
Unknown
Orbital elements
Apogee altitude
561.609 km
Perigee altitude
560.445 km
Semi-major axis
6,939.164 km
Eccentricity
0.00008
Inclination
43.0018°
RAAN
149.1948°
Arg. of periapsis
266.6775°
True anomaly
93.4067°
Mean anomaly
93.3971°
Eccentric anomaly
93.4019°
Mean motion
3.75476 °/min
Orbital period
95.88 mins
BSTAR
0.000079224
Loading maneuver chart data...
Computing Atmospheric mass density...
Loading historical data...
Loading historical data...
Loading historical data...
Loading historical data...
Loading historical data...
Loading historical data...
Loading historical data...

Documentation

Showing up to 5 results
|